Provincetown, Massachusetts, United States (02657)
Lat: 42.06N, Lon: 70.18W
Wx Zone: MAZ022
Local Info
Past Weather Observations for Today

NOTE: This archive is for the closest National Weather Service station to Provincetown. Information may differ from the station used for current weather conditions.

Click here for Long-term Archive

Time Weather Temperature Dewpoint Humidity Pressure Winds Precip Visibility
14:56
Overcast
Fog And Mist
59°F / 15°C 57°F / 14°C 94% 29.68 in
(1005 mb)
SSE 17.3 mph
(SSE 28 kph)
- 2SM
13:56
Overcast
Fog And Mist
59°F / 15°C 57°F / 14°C 94% 29.68 in
(1005 mb)
S 18.4 mph
(S 30 kph)
0.00 in
(0.00 mm)
2SM
12:56
Overcast
Light Rain
61°F / 16°C 57°F / 14°C 88% 29.71 in
(1006 mb)
S 21.9 mph
(S 35 kph)
0.01 in
(0.25 mm)
2SM
12:30
Overcast
Fog And Mist
57°F / 14°C 57°F / 14°C 100% 29.71 in
(1006 mb)
S 18.4 mph
(S 30 kph)
0.00 in
(0.00 mm)
2SM
11:56
Overcast
Light Rain
59°F / 15°C 57°F / 14°C 94% 29.71 in
(1006 mb)
S 20.7 mph
(S 33 kph)
0.03 in
(0.76 mm)
4SM
10:56
Overcast
Light Rain
57°F / 14°C 55°F / 13°C 94% 29.74 in
(1007 mb)
S 17.3 mph
(S 28 kph)
0.04 in
(1.02 mm)
2SM
10:25
Overcast
Light Rain
57°F / 14°C 55°F / 13°C 94% 29.77 in
(1008 mb)
S 17.3 mph
(S 28 kph)
0.01 in
(0.25 mm)
2SM
09:56
Overcast
Rain
57°F / 14°C 55°F / 13°C 94% 29.8 in
(1009 mb)
S 13.8 mph
(S 22 kph)
0.04 in
(1.02 mm)
2SM
09:53
Overcast
Rain
57°F / 14°C 55°F / 13°C 94% 29.8 in
(1009 mb)
SSE 16.1 mph
(SSE 26 kph)
0.03 in
(0.76 mm)
1 3/4SM
08:56
Overcast
Light Rain
55°F / 13°C 54°F / 12°C 94% 29.83 in
(1010 mb)
SSE 12.7 mph
(SSE 20 kph)
0.08 in
(2.03 mm)
5SM
08:26
Overcast
Rain
55°F / 13°C 54°F / 12°C 94% 29.86 in
(1011 mb)
SSE 11.5 mph
(SSE 19 kph)
0.06 in
(1.52 mm)
2 1/2SM
08:19
Overcast
Rain
55°F / 13°C 54°F / 12°C 94% 29.89 in
(1012 mb)
SSE 12.7 mph
(SSE 20 kph)
0.05 in
(1.27 mm)
2 1/2SM
07:56
Overcast
Rain
55°F / 13°C 54°F / 12°C 94% 29.89 in
(1012 mb)
SSE 15 mph
(SSE 24 kph)
0.16 in
(4.06 mm)
2 1/2SM
07:50
Overcast
Rain
55°F / 13°C 54°F / 12°C 94% 29.92 in
(1013 mb)
SSE 10.4 mph
(SSE 17 kph)
0.15 in
(3.81 mm)
2SM
07:47
Overcast
Rain
55°F / 13°C 54°F / 12°C 94% 29.92 in
(1013 mb)
SSE 10.4 mph
(SSE 17 kph)
0.14 in
(3.56 mm)
2 1/2SM
07:31
Overcast
Heavy Rain
57°F / 14°C 54°F / 12°C 88% 29.92 in
(1013 mb)
SSE 16.1 mph
(SSE 26 kph)
0.10 in
(2.54 mm)
2 1/2SM
07:11
Overcast
Rain
57°F / 14°C 54°F / 12°C 88% 29.95 in
(1014 mb)
S 12.7 mph
(S 20 kph)
0.04 in
(1.02 mm)
5SM
06:56
Overcast
Light Rain
55°F / 13°C 52°F / 11°C 88% 29.95 in
(1014 mb)
SSE 11.5 mph
(SSE 19 kph)
0.00 in
(0.00 mm)
6SM
05:56
Overcast
57°F / 14°C 52°F / 11°C 82% 29.95 in
(1014 mb)
SSE 11.5 mph
(SSE 19 kph)
0.00 in
(0.00 mm)
10SM
04:56
Overcast
55°F / 13°C 50°F / 10°C 82% 30.01 in
(1016 mb)
SSE 10.4 mph
(SSE 17 kph)
- 10SM
03:56
Overcast
54°F / 12°C 50°F / 10°C 88% 30.04 in
(1017 mb)
SE 9.2 mph
(SE 15 kph)
- 10SM
02:56
Overcast
55°F / 13°C 52°F / 11°C 88% 30.06 in
(1018 mb)
SSE 8.1 mph
(SSE 13 kph)
- 10SM
01:56
Partly Cloudy
52°F / 11°C 48°F / 9°C 88% 30.09 in
(1019 mb)
SE 8.1 mph
(SE 13 kph)
- 10SM
01:42
Partly Cloudy
Fog And Mist
52°F / 11°C 50°F / 10°C 94% 30.09 in
(1019 mb)
SE 4.6 mph
(SE 7 kph)
- 6SM
01:28
Mostly Cloudy
Fog And Mist
52°F / 11°C 50°F / 10°C 94% 30.09 in
(1019 mb)
SSE 3.5 mph
(SSE 6 kph)
- 4SM
01:19
Overcast
Fog And Mist
52°F / 11°C 50°F / 10°C 94% 30.09 in
(1019 mb)
SSE 3.5 mph
(SSE 6 kph)
- 2SM
00:56
Obscured
Fog
50°F / 10°C 48°F / 9°C 94% 30.09 in
(1019 mb)
SSE 4.6 mph
(SSE 7 kph)
- 1/2SM
Time Weather Temperature Dewpoint Humidity Pressure Winds Precip Visibility


Weather for websites

WeatherForYou.com, LLC is not responsible for any damages or problems caused by this service. Current weather conditions are obtained from the closest station including government and personal stations which may have varying degrees of accuracy. Weather forecasts are derived from the NOAA NDFD. Like all things, this site belongs to Jesus Christ... He just trusts me to maintain it. If you have any questions or comments email webmaster@weatherforyou.com

Copyright © 2014, WeatherForYou.com LLC. All rights reserved.